Tanana, AK

3:34 PM AKDT on June 28, 2017 (GMT -0800)
Calhoun Memorial

Weather History for PATA - January, 2013

Change the Weather History Date:

Tuesday, January 1, 2013

  Actual Average Record
Temperature  
Mean Temperature 12 °F -  
Max Temperature 19 °F 0 °F 40 °F (1974)
Min Temperature 5 °F -12 °F -63 °F (1969)
Degree Days  
Heating Degree Days 53    
Moisture  
Dew Point 6 °F    
Average Humidity 71    
Maximum Humidity 80    
Minimum Humidity 68    
Precipitation  
Precipitation 0.00 in - - ()
Snow  
Snow 0.00 in - - ()
Snow Depth 7.00 in    
Sea Level Pressure  
Sea Level Pressure 29.43 in    
Wind  
Wind Speed 9 mph (ENE)    
Max Wind Speed 16 mph    
Max Gust Speed 25 mph    
Visibility 10 miles    
Events      
Averages and records for this station are not official NWS values.
T = Trace of Precipitation, MM = Missing Value Source: NWS Daily Summary

Daily Weather History Graph

Daily Weather History Graph

Search for Another Location

Airport or City:

Trip Planner

Search our weather history database for the weather conditions in past years. The results will help you decide how hot, cold, wet, or windy it might be!

Date:

Astronomy

Jan. 01, 2013 Rise Set
Actual Time 11:17 AM AKST 3:07 PM AKST
Civil Twilight 9:52 AM AKST 4:32 PM AKST
Nautical Twilight 8:40 AM AKST 5:44 PM AKST
Astronomical Twilight 7:38 AM AKST 6:46 PM AKST
Moon 10:13 PM AKST (1/1) 11:21 AM AKST (1/1)
Length of Visible Light 6h 39m
Length of Day
3h 50m
Waning Gibbous, 82% of the Moon is Illuminated
Jan 1
Waning Gibbous
Jan 4
Last Quarter
Jan 11
New
Jan 18
First Quarter
Jan 26
Full

Hourly Weather History & Observations

Time (AKST) Temp. Windchill Dew Point Humidity Pressure Visibility Wind Dir Wind Speed Gust Speed Precip Events Conditions
12:52 AM 17.1 °F 6.6 °F 9.0 °F 71% 29.70 in 10.0 mi NNE 8.1 mph - N/A   Clear
1:52 AM 18.0 °F 11.1 °F 10.0 °F 71% 29.68 in 10.0 mi ENE 4.6 mph - N/A   Clear
2:52 AM 19.0 °F 5.0 °F 10.9 °F 71% 29.64 in 10.0 mi ENE 15.0 mph 25.3 mph N/A   Clear
3:52 AM 19.9 °F 7.3 °F 10.9 °F 68% 29.62 in 10.0 mi NNE 12.7 mph 18.4 mph N/A   Clear
4:52 AM 19.9 °F 10.1 °F 10.9 °F 68% 29.60 in 10.0 mi East 8.1 mph 16.1 mph N/A   Clear
5:52 AM 17.1 °F 8.7 °F 9.0 °F 71% 29.58 in 10.0 mi Variable 5.8 mph 17.3 mph N/A   Clear
6:52 AM 17.1 °F 4.3 °F 9.0 °F 71% 29.54 in 10.0 mi East 11.5 mph 25.3 mph N/A   Overcast
7:52 AM 15.1 °F 2.5 °F 7.0 °F 70% 29.53 in 10.0 mi East 10.4 mph - N/A   Clear
8:52 AM 15.1 °F 0.5 °F 6.1 °F 68% 29.48 in 10.0 mi ENE 13.8 mph - N/A   Overcast
9:52 AM 12.9 °F -3.4 °F 5.0 °F 71% 29.48 in 10.0 mi East 16.1 mph 25.3 mph N/A   Overcast
10:52 AM 12.9 °F -0.2 °F 5.0 °F 71% 29.44 in 10.0 mi East 10.4 mph 17.3 mph N/A   Overcast
11:52 AM 12.0 °F 5.9 °F 3.9 °F 70% 29.43 in 10.0 mi East 3.5 mph - N/A   Overcast
12:52 PM 10.9 °F -2.6 °F 3.0 °F 70% 29.40 in 10.0 mi ENE 10.4 mph 16.1 mph N/A   Overcast
1:52 PM 12.0 °F 0.5 °F 3.9 °F 70% 29.37 in 10.0 mi East 8.1 mph - N/A   Overcast
2:52 PM 12.0 °F -1.3 °F 3.9 °F 70% 29.37 in 10.0 mi ENE 10.4 mph - N/A   Mostly Cloudy
3:52 PM 12.0 °F 1.5 °F 3.9 °F 70% 29.34 in 10.0 mi Variable 6.9 mph - N/A   Overcast
4:52 PM 12.0 °F -0.4 °F 3.9 °F 70% 29.31 in 10.0 mi East 9.2 mph 18.4 mph N/A   Overcast
5:52 PM 12.0 °F 2.7 °F 3.9 °F 70% 29.29 in 10.0 mi ENE 5.8 mph 17.3 mph N/A   Overcast
6:52 PM 12.0 °F - 3.9 °F 70% 29.28 in 10.0 mi Calm Calm - N/A   Overcast
7:52 PM 7.0 °F - 1.9 °F 80% 29.26 in 10.0 mi Calm Calm - N/A   Overcast
8:52 PM 5.0 °F -2.1 °F -0.0 °F 80% 29.24 in 10.0 mi Variable 3.5 mph - N/A   Overcast
9:52 PM 12.9 °F 0.7 °F 5.0 °F 71% 29.24 in 10.0 mi East 9.2 mph - N/A   Clear
10:52 PM 12.9 °F 2.6 °F 5.0 °F 71% 29.24 in 10.0 mi East 6.9 mph 18.4 mph N/A   Clear
11:52 PM 14.0 °F 2.9 °F 6.1 °F 71% 29.24 in 10.0 mi East 8.1 mph - N/A   Overcast